Location: Alphen aan den Rijn
(52.1277°N, 4.6689°E)
Time: 06:32:23
(UTC+01:00)

Amateur Radio Satellites - All Passes

Search period start: 22 November 2017 06:02
Search period end: 23 November 2017 06:02
Location: Alphen aan den Rijn, 52.1277°N, 4.6689°E

Satellite Date Start Highest point End Downlink Frequencies (MHz)
Time Altitude Azimuth
DOVE 4 22 Nov 06:07:16 06:12:34 85° 285° (WNW) 06:17:36 437.250
XW-2C 22 Nov 06:13:04 06:16:18 26° 94° (E) 06:19:32 145.795 - 145.815
M-CUBED/EXP-1 PRIME 22 Nov 06:13:14 06:14:28 11° 316° (NW) 06:15:42 437.505
LilacSat-2 22 Nov 06:15:51 06:19:15 29° 95° (E) 06:22:39 437.200
XW-2F 22 Nov 06:22:59 06:26:23 30° 96° (E) 06:29:46 145.980 - 146.000
HO-68 22 Nov 06:26:19 06:31:17 19° 86° (E) 06:36:12 435.675
SO-50 22 Nov 06:30:49 06:35:26 67° 231° (SW) 06:40:04 436.795
CUTE 1.7 + AOD 2 22 Nov 06:33:51 06:36:01 14° 87° (E) 06:38:11 437.475
AO-85 22 Nov 06:42:35 06:46:17 34° 327° (NNW) 06:50:12 145.980
STRAND 1 22 Nov 06:46:03 06:51:08 64° 70° (ENE) 06:56:15 437.568
KAITUO 1B 22 Nov 06:49:26 06:53:04 45° 99° (E) 06:56:43 145.475/437.950
RS-15 22 Nov 06:58:56 07:04:30 15° 269° (W) 07:09:57 29.354- 29.394
BEESAT 2 22 Nov 07:02:20 07:05:17 19° 340° (NNW) 07:08:14 435.950
SEEDS 22 Nov 07:02:26 07:05:10 16° 89° (E) 07:07:52 437.485
AO-7 22 Nov 07:05:26 07:12:02 27° 318° (NW) 07:18:38 .
XW-2D 22 Nov 07:06:16 07:10:05 85° 285° (WNW) 07:13:55 145.860 - 145.880
FO-29 22 Nov 07:21:04 07:27:38 47° 61° (ENE) 07:34:51 435.910
XW-2B 22 Nov 07:21:11 07:24:57 62° 288° (WNW) 07:28:43 145.730 - 145.750
CUTE-I 22 Nov 07:23:40 07:29:05 86° 106° (ESE) 07:34:27 437.470
BEESAT 3 22 Nov 07:28:36 07:30:38 13° 358° (N) 07:32:41 437.485
NUDT-PHONESAT 22 Nov 07:32:44 07:36:26 63° 286° (WNW) 07:40:06 437.300
CUBEBUG 2 22 Nov 07:36:48 07:40:34 31° 95° (E) 07:44:15 437.445
PCSat 22 Nov 07:43:07 07:47:59 32° 33° (NNE) 07:52:51 145.827
YUBILEINY 22 Nov 07:45:17 07:53:32 43° 295° (WNW) 08:01:53 435.215
DOVE 4 22 Nov 07:46:01 07:49:27 18° 306° (NW) 07:52:49 437.250
UNISAT 6 22 Nov 07:46:50 07:48:57 13° 54° (NE) 07:51:02 437.425
XW-2C 22 Nov 07:47:05 07:50:32 33° 293° (WNW) 07:54:00 145.795 - 145.815
LilacSat-2 22 Nov 07:50:08 07:53:31 30° 294° (WNW) 07:56:54 437.200
TIGRISAT 22 Nov 07:50:57 07:53:04 13° 54° (NE) 07:55:10 435.000
Oscar 11 22 Nov 07:52:55 07:53:24 10° 84° (E) 07:53:55 .
XW-2F 22 Nov 07:57:08 08:00:26 29° 294° (WNW) 08:03:45 145.980 - 146.000
CUTE 1.7 + AOD 2 22 Nov 08:08:08 08:12:25 82° 288° (WNW) 08:16:43 437.475
HO-68 22 Nov 08:12:54 08:20:10 81° 108° (ESE) 08:27:21 435.675
SO-50 22 Nov 08:13:15 08:15:05 12° 250° (WSW) 08:16:55 436.795
ZACube-1 22 Nov 08:20:25 08:24:01 28° 94° (E) 08:27:37 437.345
KAITUO 1B 22 Nov 08:23:59 08:26:48 20° 298° (WNW) 08:29:37 145.475/437.950
AO-85 22 Nov 08:25:09 08:27:53 16° 351° (N) 08:30:44 145.980
STRAND 1 22 Nov 08:26:43 08:30:45 23° 269° (W) 08:34:49 437.568
PRISM 22 Nov 08:31:13 08:33:01 13° 54° (NE) 08:34:51 437.425
UWE-3 22 Nov 08:31:43 08:35:52 63° 102° (ESE) 08:39:58 435.000/436.395/437.385
SEEDS 22 Nov 08:37:03 08:41:17 67° 287° (WNW) 08:45:29 437.485
AAUSAT CUBESAT 2 22 Nov 08:41:13 08:45:25 67° 102° (ESE) 08:49:35 437.432
XW-2A 22 Nov 08:42:02 08:45:26 81° 104° (ESE) 08:48:48 145.665 - 145.685
XW-2D 22 Nov 08:42:16 08:43:38 12° 304° (NW) 08:45:00 145.860 - 145.880
BEESAT 2 22 Nov 08:42:18 08:44:28 14° 3° (N) 08:46:38 435.950
AO-7 22 Nov 08:59:02 09:02:04 12° 344° (NNW) 09:05:06 .
CUTE-I 22 Nov 09:04:38 09:08:31 21° 306° (NW) 09:12:24 437.470
DELFI C3 22 Nov 09:05:36 09:07:12 12° 86° (E) 09:08:49 145.870
FO-29 22 Nov 09:06:00 09:12:38 50° 264° (W) 09:20:00 435.910
BEESAT 3 22 Nov 09:06:42 09:09:36 19° 21° (NNE) 09:12:29 437.485
AO-73 22 Nov 09:10:37 09:14:46 76° 102° (ESE) 09:18:56 145.935
CUBEBUG 2 22 Nov 09:13:26 09:17:13 33° 294° (WNW) 09:20:56 437.445
UNISAT 6 22 Nov 09:20:25 09:24:57 75° 74° (ENE) 09:29:25 437.425
TIGRISAT 22 Nov 09:24:32 09:29:03 76° 74° (ENE) 09:33:30 435.000
Oscar 11 22 Nov 09:25:58 09:30:20 75° 104° (ESE) 09:34:40 .
PCSat 22 Nov 09:26:27 09:31:53 74° 236° (SW) 09:37:17 145.827
CUTE 1.7 + AOD 2 22 Nov 09:45:32 09:47:36 13° 305° (NW) 09:49:38 437.475
YUBILEINY 22 Nov 09:49:20 09:53:26 14° 323° (NW) 09:57:34 435.215
EO-88 22 Nov 09:55:35 09:58:14 19° 92° (E) 10:00:51 145.990 - 145.960
ZACube-1 22 Nov 09:56:35 10:00:23 36° 293° (WNW) 10:04:11 437.345
Max Valier Satellite 22 Nov 09:58:58 10:02:09 27° 95° (E) 10:05:19 145.860
AIST 2D 22 Nov 10:00:35 10:03:18 22° 64° (ENE) 10:06:02 435.315
HO-68 22 Nov 10:01:15 10:07:16 30° 309° (NW) 10:13:16 435.675
PRISM 22 Nov 10:03:27 10:07:35 79° 73° (ENE) 10:11:47 437.425
AO-85 22 Nov 10:06:44 10:09:51 19° 16° (NNE) 10:13:07 145.980
UWE-3 22 Nov 10:09:04 10:11:56 18° 301° (WNW) 10:14:46 435.000/436.395/437.385
SEEDS 22 Nov 10:14:55 10:16:10 11° 307° (NW) 10:17:25 437.485
XW-2A 22 Nov 10:16:40 10:17:36 11° 302° (WNW) 10:18:31 145.665 - 145.685
AAUSAT CUBESAT 2 22 Nov 10:17:35 10:20:25 18° 301° (WNW) 10:23:16 437.432
BEESAT 2 22 Nov 10:20:11 10:23:31 23° 27° (NNE) 10:26:49 435.950
DUCHIFAT 1 22 Nov 10:26:06 10:28:51 17° 58° (ENE) 10:31:37 145.980
EO-79 22 Nov 10:33:49 10:37:13 24° 62° (ENE) 10:40:38 145.935-145.965
NANOSAT C BR1 22 Nov 10:36:30 10:39:50 23° 61° (ENE) 10:43:10 145.865
DELFI C3 22 Nov 10:38:29 10:42:32 83° 286° (WNW) 10:46:32 145.870
BEESAT 3 22 Nov 10:43:55 10:47:53 62° 44° (NE) 10:51:46 437.485
AO-73 22 Nov 10:48:01 10:50:30 16° 302° (WNW) 10:53:00 145.935
ESTCUBE 1 22 Nov 10:48:43 10:49:45 11° 84° (E) 10:50:47 437.505/2401.250
AO-7 22 Nov 10:48:46 10:51:18 12° 12° (NNE) 10:53:51 .
POLYITAN 1 22 Nov 10:48:58 10:52:44 32° 65° (ENE) 10:56:29 437.675
FO-29 22 Nov 10:58:00 10:59:45 11° 287° (WNW) 11:01:31 435.910
UNISAT 6 22 Nov 10:59:23 11:02:11 16° 272° (W) 11:04:56 437.425
Oscar 11 22 Nov 11:03:09 11:05:58 17° 302° (WNW) 11:08:47 .
TIGRISAT 22 Nov 11:03:30 11:06:15 16° 272° (W) 11:08:59 435.000
PCSat 22 Nov 11:11:29 11:14:22 15° 256° (WSW) 11:17:15 145.827
QB50P2 22 Nov 11:11:53 11:16:02 56° 70° (ENE) 11:20:11 145.880/145.840
BUGSAT 1 22 Nov 11:15:12 11:17:38 15° 57° (ENE) 11:20:05 437.445
EO-88 22 Nov 11:28:35 11:32:05 44° 290° (WNW) 11:35:34 145.990 - 145.960
Max Valier Satellite 22 Nov 11:32:44 11:35:58 30° 293° (WNW) 11:39:12 145.860
AIST 2D 22 Nov 11:33:07 11:36:18 34° 263° (W) 11:39:32 435.315
PRISM 22 Nov 11:41:18 11:43:25 14° 272° (W) 11:45:33 437.425
AO-85 22 Nov 11:46:55 11:51:16 45° 39° (NE) 11:55:55 145.980
LO-87 22 Nov 11:49:41 11:53:10 47° 100° (E) 11:56:35 145.935 - 145.965
HO-68 22 Nov 11:51:45 11:52:47 10° 333° (NNW) 11:53:50 435.675
SPROUT 22 Nov 11:54:08 11:55:47 12° 86° (E) 11:57:25 437.525
BEESAT 2 22 Nov 11:57:41 12:01:45 88° 231° (SW) 12:05:46 435.950
Oscar 19 22 Nov 11:57:56 12:02:10 27° 59° (ENE) 12:06:25 437.125/150
DUCHIFAT 1 22 Nov 11:59:50 12:04:03 72° 257° (WSW) 12:08:16 145.980
EO-79 22 Nov 12:08:39 12:12:45 47° 261° (W) 12:16:52 145.935-145.965
NANOSAT C BR1 22 Nov 12:11:11 12:15:17 49° 260° (W) 12:19:25 145.865
DELFI C3 22 Nov 12:14:56 12:16:37 12° 305° (NW) 12:18:18 145.870
M-CUBED/EXP-1 PRIME 22 Nov 12:21:39 12:23:18 12° 45° (NE) 12:24:59 437.505
BEESAT 3 22 Nov 12:22:04 12:25:03 21° 244° (WSW) 12:28:01 437.485
ESTCUBE 1 22 Nov 12:22:49 12:27:22 74° 103° (ESE) 12:31:55 437.505/2401.250
POLYITAN 1 22 Nov 12:24:37 12:28:28 34° 263° (W) 12:32:21 437.675
Gurwin Techsat 1B 22 Nov 12:30:37 12:35:25 36° 62° (ENE) 12:40:15 435.225
AO-7 22 Nov 12:34:59 12:41:10 24° 39° (NE) 12:47:23 .
O/OREOS (USA 219) 22 Nov 12:38:17 12:39:36 11° 96° (E) 12:40:55 437.305
VELOX 1 22 Nov 12:39:17 12:42:46 22° 92° (E) 12:46:13 145.980
BUGSAT 1 22 Nov 12:48:16 12:52:28 82° 254° (WSW) 12:56:39 437.445
QB50P2 22 Nov 12:49:04 12:52:09 19° 269° (W) 12:55:15 145.880/145.840
50 SAT 22 Nov 13:20:40 13:21:43 11° 89° (E) 13:22:46 437.505
DX 1 22 Nov 13:22:05 13:24:37 15° 88° (E) 13:27:07 434.975-435.025
LO-87 22 Nov 13:23:49 13:26:15 18° 299° (WNW) 13:28:41 145.935 - 145.965
AO-85 22 Nov 13:27:22 13:31:41 40° 237° (WSW) 13:36:19 145.980
SPROUT 22 Nov 13:28:03 13:32:21 89° 118° (ESE) 13:36:35 437.525
Oscar 19 22 Nov 13:36:08 13:41:11 58° 258° (WSW) 13:46:16 437.125/150
BEESAT 2 22 Nov 13:36:45 13:38:52 14° 248° (WSW) 13:40:57 435.950
ITAMSAT 1 22 Nov 13:53:05 13:57:03 22° 55° (NE) 14:01:00 435.822/435.867
M-CUBED/EXP-1 PRIME 22 Nov 13:53:14 13:56:55 73° 66° (ENE) 14:00:56 437.505
YUBILEINY 22 Nov 13:55:07 13:58:49 13° 35° (NE) 14:02:30 435.215
ESTCUBE 1 22 Nov 14:00:33 14:03:42 19° 303° (WNW) 14:06:50 437.505/2401.250
UKube-1 22 Nov 14:01:13 14:04:38 22° 92° (E) 14:08:01 .
Gurwin Techsat 1B 22 Nov 14:10:14 14:15:19 44° 262° (W) 14:20:24 435.225
O/OREOS (USA 219) 22 Nov 14:13:34 14:18:09 74° 117° (ESE) 14:22:46 437.305
VELOX 1 22 Nov 14:15:09 14:19:31 54° 291° (WNW) 14:23:51 145.980
AO-7 22 Nov 14:24:26 14:32:37 68° 63° (ENE) 14:40:52 .
BUGSAT 1 22 Nov 14:27:35 14:28:30 11° 274° (W) 14:29:25 437.445
50 SAT 22 Nov 14:50:58 14:54:11 59° 288° (WNW) 14:57:21 437.505
DX 1 22 Nov 14:56:56 15:01:21 78° 288° (WNW) 15:05:43 434.975-435.025
SPROUT 22 Nov 15:05:16 15:07:37 15° 305° (NW) 15:09:58 437.525
HO-68 22 Nov 15:20:34 15:21:33 10° 27° (NNE) 15:22:33 435.675
BEESAT 22 Nov 15:21:46 15:25:36 24° 92° (E) 15:29:24 436.000
M-CUBED/EXP-1 PRIME 22 Nov 15:30:01 15:31:54 13° 267° (W) 15:33:50 437.505
ITAMSAT 1 22 Nov 15:30:46 15:36:00 77° 256° (WSW) 15:41:16 435.822/435.867
ITUPSAT 1 22 Nov 15:32:05 15:36:12 28° 94° (E) 15:40:18 437.325
MOZHAYETS 4 22 Nov 15:33:25 15:37:41 38° 97° (E) 15:41:56
UKube-1 22 Nov 15:36:43 15:40:55 50° 291° (WNW) 15:45:06 .
CUTE-I 22 Nov 15:37:04 15:37:59 10° 43° (NE) 15:38:53 437.470
DOVE 4 22 Nov 15:40:39 15:45:09 31° 62° (ENE) 15:49:47 437.250
CUBESAT XI-V 22 Nov 15:48:51 15:51:47 16° 88° (E) 15:54:43 437.345
YUBILEINY 22 Nov 15:50:39 15:58:53 40° 64° (ENE) 16:07:04 435.215
O/OREOS (USA 219) 22 Nov 15:54:26 15:58:06 22° 317° (NW) 16:01:45 437.305
VELOX 1 22 Nov 15:54:37 15:55:01 10° 311° (NW) 15:55:25 145.980
NO-84 22 Nov 15:59:36 16:03:06 37° 142° (SE) 16:06:52 435.350 FM
AO-7 22 Nov 16:18:29 16:25:58 36° 264° (W) 16:33:31 .
XW-2D 22 Nov 16:20:39 16:22:29 13° 58° (ENE) 16:24:20 145.860 - 145.880
DX 1 22 Nov 16:34:39 16:36:49 14° 307° (NW) 16:38:59 434.975-435.025
XW-2B 22 Nov 16:34:46 16:37:14 17° 60° (ENE) 16:39:43 145.730 - 145.750
NUDT-PHONESAT 22 Nov 16:44:36 16:46:48 15° 60° (ENE) 16:49:00 437.300
BEESAT 22 Nov 16:59:02 17:03:41 55° 292° (WNW) 17:08:19 436.000
XW-2C 22 Nov 16:59:30 17:02:44 28° 66° (ENE) 17:06:00 145.795 - 145.815
HO-68 22 Nov 17:01:03 17:07:03 30° 51° (NE) 17:13:04 435.675
LilacSat-2 22 Nov 17:02:53 17:06:17 33° 67° (ENE) 17:09:41 437.200
RS-15 22 Nov 17:06:56 17:13:46 17° 93° (E) 17:20:32 29.354- 29.394
XW-2F 22 Nov 17:08:52 17:12:13 33° 67° (ENE) 17:15:36 145.980 - 146.000
ITUPSAT 1 22 Nov 17:09:40 17:14:13 46° 294° (WNW) 17:18:45 437.325
MOZHAYETS 4 22 Nov 17:10:43 17:14:47 32° 296° (WNW) 17:18:51
CUTE-I 22 Nov 17:11:41 17:16:45 43° 64° (ENE) 17:21:50 437.470
ITAMSAT 1 22 Nov 17:13:51 17:16:21 13° 275° (W) 17:18:53 435.822/435.867
KKS-1 22 Nov 17:16:44 17:20:27 25° 93° (E) 17:24:07 437.445
DOVE 4 22 Nov 17:17:37 17:22:36 50° 262° (W) 17:27:47 437.250
CUBESAT XI-V 22 Nov 17:25:01 17:29:43 79° 287° (WNW) 17:34:25 437.345
CUTE 1.7 + AOD 2 22 Nov 17:31:29 17:34:35 20° 60° (ENE) 17:37:42 437.475
KAITUO 1B 22 Nov 17:34:18 17:37:51 47° 70° (ENE) 17:41:26 145.475/437.950
NO-84 22 Nov 17:36:22 17:40:17 74° 342° (NNW) 17:44:28 435.350 FM
STARS 22 Nov 17:37:48 17:40:48 18° 90° (E) 17:43:46 437.465
YUBILEINY 22 Nov 17:47:32 17:56:13 63° 268° (W) 18:04:51 435.215
XW-2D 22 Nov 17:52:23 17:56:07 79° 256° (WSW) 17:59:54 145.860 - 145.880
SEEDS 22 Nov 17:59:08 18:02:28 23° 62° (ENE) 18:05:49 437.485
UWE-3 22 Nov 17:59:28 18:02:06 16° 57° (ENE) 18:04:42 435.000/436.395/437.385
AAUSAT CUBESAT 2 22 Nov 18:03:25 18:05:31 14° 56° (NE) 18:07:38 437.432
XW-2B 22 Nov 18:07:21 18:11:02 56° 259° (W) 18:14:46 145.730 - 145.750
NUDT-PHONESAT 22 Nov 18:16:37 18:20:14 61° 259° (W) 18:23:53 437.300
XW-2C 22 Nov 18:33:34 18:36:53 30° 265° (W) 18:40:14 145.795 - 145.815
AO-73 22 Nov 18:36:50 18:39:36 17° 59° (ENE) 18:42:21 145.935
LilacSat-2 22 Nov 18:37:24 18:40:36 26° 266° (W) 18:43:49 437.200
BEESAT 22 Nov 18:39:06 18:40:29 11° 312° (NW) 18:41:52 436.000
CUBEBUG 2 22 Nov 18:39:37 18:44:02 53° 70° (ENE) 18:48:19 437.445
XW-2F 22 Nov 18:43:15 18:46:22 25° 266° (W) 18:49:33 145.980 - 146.000
HO-68 22 Nov 18:46:56 18:54:09 81° 252° (WSW) 19:01:26 435.675
Oscar 11 22 Nov 18:51:40 18:54:31 17° 58° (ENE) 18:57:22 .
CUTE-I 22 Nov 18:51:58 18:56:54 36° 264° (W) 19:01:52 437.470
STRAND 1 22 Nov 18:52:12 18:54:53 14° 85° (E) 18:57:33 437.568
KKS-1 22 Nov 18:52:55 18:57:13 47° 292° (WNW) 19:01:29 437.445
CUBESAT XI-V 22 Nov 19:03:49 19:06:22 15° 306° (NW) 19:08:55 437.345
CUTE 1.7 + AOD 2 22 Nov 19:05:55 19:10:03 57° 259° (W) 19:14:15 437.475
KAITUO 1B 22 Nov 19:09:33 19:12:05 18° 269° (W) 19:14:39 145.475/437.950
RS-15 22 Nov 19:11:33 19:23:28 59° 118° (ESE) 19:35:14 29.354- 29.394
STARS 22 Nov 19:13:12 19:17:35 65° 290° (WNW) 19:21:55 437.465
NO-84 22 Nov 19:13:57 19:17:58 57° 5° (N) 19:22:11 435.350 FM
XW-2A 22 Nov 19:17:58 19:21:16 65° 73° (ENE) 19:24:35 145.665 - 145.685
ZACube-1 22 Nov 19:21:10 19:25:13 44° 69° (ENE) 19:29:15 437.345
UWE-3 22 Nov 19:33:37 19:38:02 82° 257° (WSW) 19:42:21 435.000/436.395/437.385
SEEDS 22 Nov 19:33:52 19:37:54 47° 261° (W) 19:42:00 437.485
AAUSAT CUBESAT 2 22 Nov 19:36:12 19:40:20 88° 76° (ENE) 19:44:32 437.432
YUBILEINY 22 Nov 19:46:24 19:51:08 16° 291° (WNW) 19:55:52 435.215
DELFI C3 22 Nov 19:55:45 19:58:16 16° 59° (ENE) 20:00:47 145.870
FO-29 22 Nov 20:09:14 20:15:50 28° 87° (E) 20:22:08 435.910
AO-73 22 Nov 20:11:08 20:15:24 71° 258° (WSW) 20:19:36 145.935
CUBEBUG 2 22 Nov 20:17:22 20:20:55 22° 268° (W) 20:24:23 437.445
Oscar 11 22 Nov 20:25:52 20:30:10 73° 257° (WSW) 20:34:29 .
STRAND 1 22 Nov 20:29:43 20:34:54 83° 107° (ESE) 20:40:01 437.568
HO-68 22 Nov 20:38:02 20:43:01 20° 274° (W) 20:48:03 435.675
EO-88 22 Nov 20:38:29 20:41:09 20° 62° (ENE) 20:43:51 145.990 - 145.960
Max Valier Satellite 22 Nov 20:42:53 20:46:03 28° 66° (ENE) 20:49:14 145.860
NO-84 22 Nov 20:51:21 20:55:33 81° 205° (SSW) 20:59:50 435.350 FM
STARS 22 Nov 20:51:32 20:53:06 12° 309° (NW) 20:54:40 437.465
XW-2A 22 Nov 20:53:26 20:54:23 11° 272° (W) 20:55:19 145.665 - 145.685
ZACube-1 22 Nov 20:58:13 21:01:42 24° 267° (W) 21:05:10 437.345
O/OREOS (USA 219) 22 Nov 21:00:27 21:03:00 14° 34° (NE) 21:05:31 437.305
nSIGHT-1 22 Nov 21:04:18 21:06:26 17° 143° (SE) 21:08:34 .
UWE-3 22 Nov 21:13:46 21:15:10 11° 275° (W) 21:16:34 435.000/436.395/437.385
AAUSAT CUBESAT 2 22 Nov 21:14:50 21:16:25 12° 274° (W) 21:18:02 437.432
RS-15 22 Nov 21:23:46 21:36:05 66° 325° (NW) 21:48:09 29.354- 29.394
DELFI C3 22 Nov 21:28:34 21:32:32 69° 258° (WSW) 21:36:33 145.870
ISS 22 Nov 21:52:06 21:54:59 28° 151° (SSE) 21:57:52 437.550
ESTCUBE 1 22 Nov 21:52:19 21:55:39 21° 59° (ENE) 21:58:59 437.505/2401.250
FO-29 22 Nov 21:53:43 22:01:40 82° 289° (WNW) 22:09:14 435.910
STRAND 1 22 Nov 22:09:50 22:13:30 20° 305° (NW) 22:17:09 437.568
EO-88 22 Nov 22:11:05 22:14:32 43° 261° (W) 22:18:03 145.990 - 145.960
Max Valier Satellite 22 Nov 22:16:40 22:19:51 28° 265° (W) 22:23:04 145.860
NO-84 22 Nov 22:29:05 22:32:32 24° 224° (SW) 22:35:59 435.350 FM
SO-50 22 Nov 22:29:59 22:34:22 55° 126° (SE) 22:38:48 436.795
LO-87 22 Nov 22:30:28 22:33:56 46° 71° (ENE) 22:37:24 145.935 - 145.965
O/OREOS (USA 219) 22 Nov 22:38:54 22:43:26 58° 57° (ENE) 22:47:53 437.305
nSIGHT-1 22 Nov 22:39:02 22:42:11 54° 162° (SSE) 22:45:20 .
UNISAT 6 22 Nov 22:42:54 22:47:13 76° 103° (ESE) 22:51:28 437.425
TIGRISAT 22 Nov 22:46:50 22:51:08 77° 103° (ESE) 22:55:22 435.000
SPROUT 22 Nov 22:51:55 22:55:05 20° 59° (ENE) 22:58:14 437.525
AIST 2D 22 Nov 22:53:15 22:54:48 12° 88° (E) 22:56:22 435.315
PRISM 22 Nov 23:14:06 23:18:14 57° 101° (ESE) 23:22:19 437.425
ESTCUBE 1 22 Nov 23:27:36 23:32:03 64° 258° (WSW) 23:36:33 437.505/2401.250
ISS 22 Nov 23:27:55 23:31:12 74° 169° (S) 23:34:28 437.550
RS-15 22 Nov 23:39:24 23:51:06 46° 357° (N) 00:02:21 29.354- 29.394
FO-29 22 Nov 23:39:27 23:45:40 27° 310° (NW) 23:51:45 435.910
DUCHIFAT 1 22 Nov 23:39:37 23:41:25 12° 87° (E) 23:43:13 145.980
VELOX 1 22 Nov 23:41:23 23:45:29 38° 66° (ENE) 23:49:38 145.980
EO-79 22 Nov 23:47:59 23:51:01 19° 91° (E) 23:54:01 145.935-145.965
NANOSAT C BR1 22 Nov 23:50:15 23:53:08 18° 90° (E) 23:56:01 145.865
50 SAT 22 Nov 23:53:30 23:54:21 11° 58° (ENE) 23:55:12 437.505
POLYITAN 1 23 Nov 00:03:24 00:06:57 26° 94° (E) 00:10:28 437.675
LO-87 23 Nov 00:05:07 00:07:34 17° 269° (W) 00:10:03 145.935 - 145.965
SO-50 23 Nov 00:10:53 00:15:03 35° 328° (NNW) 00:19:15 436.795
PCSat 23 Nov 00:13:56 00:18:39 32° 113° (ESE) 00:23:24 145.827
nSIGHT-1 23 Nov 00:15:07 00:18:21 84° 181° (S) 00:21:33 .
O/OREOS (USA 219) 23 Nov 00:18:58 00:22:28 22° 257° (WSW) 00:25:56 437.305
UNISAT 6 23 Nov 00:20:41 00:23:25 17° 303° (WNW) 00:26:06 437.425
DX 1 23 Nov 00:22:18 00:25:59 27° 62° (ENE) 00:29:42 434.975-435.025
TIGRISAT 23 Nov 00:24:36 00:27:18 17° 303° (WNW) 00:29:59 435.000
AIST 2D 23 Nov 00:24:53 00:28:23 64° 287° (WNW) 00:31:53 435.315
SPROUT 23 Nov 00:26:21 00:30:35 60° 258° (WSW) 00:34:51 437.525
QB50P2 23 Nov 00:26:32 00:30:37 47° 99° (E) 00:34:40 145.880/145.840
PRISM 23 Nov 00:50:03 00:53:09 20° 301° (WNW) 00:56:13 437.425
BEESAT 23 Nov 01:00:03 01:01:01 11° 47° (NE) 01:01:59 436.000
UKube-1 23 Nov 01:00:30 01:04:31 38° 66° (ENE) 01:08:33 .
ISS 23 Nov 01:04:21 01:07:38 75° 189° (S) 01:10:54 437.550
MOZHAYETS 4 23 Nov 01:06:37 01:08:34 13° 52° (NE) 01:10:32
ITUPSAT 1 23 Nov 01:09:44 01:11:41 12° 50° (NE) 01:13:39 437.325
DUCHIFAT 1 23 Nov 01:13:29 01:17:41 85° 285° (WNW) 01:21:51 145.980
VELOX 1 23 Nov 01:18:04 01:22:01 31° 265° (W) 01:25:59 145.980
50 SAT 23 Nov 01:22:41 01:25:55 77° 256° (WSW) 01:29:11 437.505
EO-79 23 Nov 01:23:00 01:27:07 56° 290° (WNW) 01:31:13 145.935-145.965
NANOSAT C BR1 23 Nov 01:25:06 01:29:14 59° 289° (WNW) 01:33:20 145.865
POLYITAN 1 23 Nov 01:38:55 01:42:52 40° 293° (WNW) 01:46:47 437.675
Oscar 19 23 Nov 01:41:52 01:46:30 32° 95° (E) 01:51:07 437.125/150
nSIGHT-1 23 Nov 01:51:22 01:54:27 45° 202° (SSW) 01:57:32 .
SO-50 23 Nov 01:53:34 01:56:44 18° 352° (N) 01:59:55 436.795
RS-15 23 Nov 01:54:19 02:06:20 59° 29° (NNE) 02:17:43 29.354- 29.394
PCSat 23 Nov 01:56:26 02:01:47 59° 314° (NW) 02:07:11 145.827
DX 1 23 Nov 01:57:49 02:02:00 44° 261° (W) 02:06:13 434.975-435.025
BUGSAT 1 23 Nov 01:59:30 02:03:34 78° 103° (ESE) 02:07:35 437.445
QB50P2 23 Nov 02:02:48 02:06:11 24° 299° (WNW) 02:09:33 145.880/145.840
BEESAT 3 23 Nov 02:16:50 02:19:11 15° 113° (ESE) 02:21:34 437.485
Gurwin Techsat 1B 23 Nov 02:20:11 02:25:23 49° 99° (E) 02:30:31 435.225
AO-7 23 Nov 02:21:43 02:25:35 14° 81° (E) 02:29:25 .
BEESAT 23 Nov 02:33:09 02:37:46 51° 68° (ENE) 02:42:24 436.000
UKube-1 23 Nov 02:36:51 02:40:38 29° 265° (W) 02:44:26 .
MOZHAYETS 4 23 Nov 02:40:23 02:44:56 69° 71° (ENE) 02:49:29
ISS 23 Nov 02:40:58 02:43:51 29° 209° (SSW) 02:46:43 437.550
ITUPSAT 1 23 Nov 02:43:55 02:48:37 62° 70° (ENE) 02:53:21 437.325
DUCHIFAT 1 23 Nov 02:50:40 02:52:42 13° 305° (NW) 02:54:44 145.980
CUBESAT XI-V 23 Nov 02:57:05 03:01:04 30° 63° (ENE) 03:05:05 437.345
M-CUBED/EXP-1 PRIME 23 Nov 02:59:55 03:03:40 25° 99° (E) 03:07:28 437.505
Oscar 19 23 Nov 03:21:04 03:25:59 45° 294° (WNW) 03:30:53 437.125/150
nSIGHT-1 23 Nov 03:28:37 03:30:05 13° 220° (SW) 03:31:33 .
BEESAT 2 23 Nov 03:31:19 03:34:36 24° 118° (ESE) 03:37:55 435.950
SO-50 23 Nov 03:35:16 03:38:44 21° 16° (NNE) 03:42:14 436.795
BUGSAT 1 23 Nov 03:36:04 03:38:25 15° 303° (WNW) 03:40:44 437.445
ITAMSAT 1 23 Nov 03:38:16 03:42:32 25° 92° (E) 03:46:46 435.822/435.867
PCSat 23 Nov 03:42:04 03:46:17 22° 338° (NNW) 03:50:31 145.827
AO-85 23 Nov 03:48:44 03:50:58 15° 112° (ESE) 03:53:16 145.980
BEESAT 3 23 Nov 03:52:10 03:56:11 85° 310° (NW) 04:00:13 437.485
Gurwin Techsat 1B 23 Nov 04:00:28 04:05:10 33° 299° (WNW) 04:09:51 435.225
RS-15 23 Nov 04:07:30 04:19:18 68° 238° (WSW) 04:30:27 29.354- 29.394
BEESAT 23 Nov 04:11:51 04:15:48 25° 267° (W) 04:19:46 436.000
AO-7 23 Nov 04:12:04 04:20:18 57° 103° (ESE) 04:28:30 .
MOZHAYETS 4 23 Nov 04:19:29 04:22:34 18° 271° (W) 04:25:39
KKS-1 23 Nov 04:19:40 04:23:57 46° 67° (ENE) 04:28:16 437.445
ITUPSAT 1 23 Nov 04:23:13 04:26:51 21° 269° (W) 04:30:30 437.325
M-CUBED/EXP-1 PRIME 23 Nov 04:33:51 04:38:15 54° 297° (WNW) 04:42:46 437.505
CUBESAT XI-V 23 Nov 04:33:56 04:38:19 42° 262° (W) 04:42:44 437.345
STARS 23 Nov 04:39:08 04:43:04 32° 64° (ENE) 04:47:02 437.465
YUBILEINY 23 Nov 04:59:37 05:07:16 36° 82° (E) 05:14:59 435.215
Oscar 19 23 Nov 05:03:21 05:04:07 10° 315° (NW) 05:04:53 437.125/150
BEESAT 2 23 Nov 05:08:05 05:12:04 56° 317° (NW) 05:16:06 435.950
DOVE 4 23 Nov 05:10:48 05:15:36 35° 94° (E) 05:20:10 437.250
SO-50 23 Nov 05:15:39 05:20:09 51° 39° (NE) 05:24:43 436.795
ITAMSAT 1 23 Nov 05:17:14 05:22:23 60° 292° (WNW) 05:27:30 435.822/435.867
CUTE-I 23 Nov 05:25:51 05:26:33 10° 81° (E) 05:27:16 437.470
AO-85 23 Nov 05:26:46 05:30:42 84° 310° (NW) 05:34:55 145.980
PCSat 23 Nov 05:28:11 05:31:40 17° 4° (N) 05:35:09 145.827
BEESAT 3 23 Nov 05:31:04 05:34:16 22° 334° (NNW) 05:37:29 437.485
XW-2B 23 Nov 05:36:03 05:37:03 11° 86° (E) 05:38:03 145.730 - 145.750
